Social login voor leden:

1. METAR EBOS

METAR EBOS 131750Z 02008KT CAVOK 20/11 Q1026 NOSIG

2. TAF EBOS

TAF EBOS 131750Z 02008KT CAVOK 20/11 Q1026 NOSIG

3. NOTAMS EBOS

Klik hier voor een overzicht van de notams.

Deze pagina promoten

Noordzee Vliegclub - Nieuwpoortsesteenweg 947 8400 Oostende - Tel 059 30 04 79 - info@nzvc.be - 

 - Copyright 2020